TimeMDT,TemperatureF,Dew PointF,Humidity,Sea Level PressureIn,VisibilityMPH,Wind Direction,Wind SpeedMPH,Gust SpeedMPH,PrecipitationIn,Events,Conditions,WindDirDegrees,DateUTC
12:53 AM,42.1,28.9,60,29.91,10.0,WNW,24.2,38.0,N/A,,Mostly Cloudy,300,2012-10-18 06:53:00
1:53 AM,42.1,30.0,62,29.94,10.0,NW,29.9,38.0,N/A,,Mostly Cloudy,310,2012-10-18 07:53:00
2:53 AM,41.0,30.0,65,29.96,10.0,NW,20.7,32.2,N/A,,Mostly Cloudy,310,2012-10-18 08:53:00
3:53 AM,41.0,30.0,65,29.99,10.0,NW,23.0,36.8,N/A,,Partly Cloudy,320,2012-10-18 09:53:00
4:53 AM,39.0,30.0,70,30.02,10.0,NW,23.0,31.1,N/A,,Clear,320,2012-10-18 10:53:00
5:53 AM,39.0,30.0,70,30.04,10.0,NW,21.9,35.7,N/A,,Clear,320,2012-10-18 11:53:00
6:53 AM,39.0,30.0,70,30.06,10.0,NW,21.9,32.2,N/A,,Scattered Clouds,320,2012-10-18 12:53:00
7:09 AM,37.4,30.2,75,30.02,10.0,NW,20.7,31.1,N/A,,Mostly Cloudy,310,2012-10-18 13:09:00
7:20 AM,37.4,30.2,75,30.02,10.0,NW,16.1,26.5,N/A,,Scattered Clouds,310,2012-10-18 13:20:00
7:53 AM,37.9,30.0,73,30.09,10.0,NW,17.3,-,N/A,,Mostly Cloudy,320,2012-10-18 13:53:00
8:53 AM,39.9,30.0,68,30.13,10.0,WNW,10.4,-,N/A,,Overcast,300,2012-10-18 14:53:00
9:49 AM,41.0,30.2,65,30.08,10.0,NW,21.9,27.6,N/A,,Scattered Clouds,320,2012-10-18 15:49:00
9:53 AM,41.0,30.0,65,30.13,10.0,NW,19.6,27.6,N/A,,Partly Cloudy,320,2012-10-18 15:53:00
10:23 AM,39.2,30.2,70,30.10,10.0,NW,16.1,-,N/A,,Mostly Cloudy,320,2012-10-18 16:23:00
10:53 AM,43.0,30.9,62,30.15,10.0,NNW,16.1,24.2,N/A,,Mostly Cloudy,330,2012-10-18 16:53:00
11:27 AM,44.6,30.2,57,30.10,10.0,NW,19.6,-,N/A,,Scattered Clouds,310,2012-10-18 17:27:00
11:53 AM,46.0,30.9,56,30.15,10.0,NW,15.0,23.0,N/A,,Clear,320,2012-10-18 17:53:00
12:53 PM,48.0,30.9,52,30.14,10.0,NW,11.5,23.0,N/A,,Clear,320,2012-10-18 18:53:00
1:53 PM,51.1,30.0,44,30.12,10.0,NNW,19.6,26.5,N/A,,Clear,330,2012-10-18 19:53:00
2:53 PM,52.0,28.9,41,30.11,10.0,NW,15.0,23.0,N/A,,Clear,320,2012-10-18 20:53:00
3:53 PM,53.1,28.0,38,30.10,10.0,NW,11.5,20.7,N/A,,Clear,310,2012-10-18 21:53:00
4:53 PM,51.1,26.1,38,30.12,10.0,WNW,13.8,-,N/A,,Clear,300,2012-10-18 22:53:00
5:53 PM,46.9,24.1,41,30.12,10.0,NNW,6.9,-,N/A,,Clear,340,2012-10-18 23:53:00
6:53 PM,37.0,26.1,65,30.13,10.0,NNE,3.5,-,N/A,,Clear,20,2012-10-19 00:53:00
7:53 PM,35.1,28.0,76,30.14,10.0,East,5.8,-,N/A,,Clear,90,2012-10-19 01:53:00
8:53 PM,30.0,25.0,82,30.14,10.0,ENE,4.6,-,N/A,,Clear,60,2012-10-19 02:53:00
9:53 PM,28.9,25.0,85,30.13,10.0,Calm,Calm,-,N/A,,Clear,0,2012-10-19 03:53:00
10:53 PM,27.0,24.1,89,30.13,10.0,Calm,Calm,-,N/A,,Clear,0,2012-10-19 04:53:00
11:53 PM,25.0,23.0,92,30.11,10.0,Calm,Calm,-,N/A,,Clear,0,2012-10-19 05:53:00